Central Park, NY

3:21 AM EDT on July 27, 2017 (GMT -0400)
Central Park

Weather History for KNYC - August, 2013

Change the Weather History Date:

Saturday, August 17, 2013

  Actual Average Record
Temperature  
Mean Temperature 74 °F 75 °F  
Max Temperature 84 °F 83 °F 95 °F (1944)
Min Temperature 64 °F 68 °F 56 °F (1979)
Degree Days  
Heating Degree Days 0 0  
Month to date heating degree days 0 0  
Since 1 June heating degree days 9 19  
Since 1 July heating degree days 0 0  
Cooling Degree Days 9 10  
Month to date cooling degree days 144 186  
Year to date cooling degree days 932 822  
Since 1 June cooling degree days 853 753  
Growing Degree Days 23 (Base 50)    
Moisture  
Dew Point 53 °F    
Average Humidity 51    
Maximum Humidity 68    
Minimum Humidity 34    
Precipitation  
Precipitation 0.00 in 0.14 in 2.86 in (1974)
Month to date precipitation 2.12 2.56  
Year to date precipitation 34.28 31.36  
Snow  
Snow 0.00 in 0.00 in 0.00 in (2002)
Month to date snowfall 0.0 0.0  
Since 1 July snowfall 0.0 0.0  
Snow Depth 0.00 in    
Sea Level Pressure  
Sea Level Pressure 30.25 in    
Wind  
Wind Speed 2 mph (ENE)    
Max Wind Speed 8 mph    
Max Gust Speed 11 mph    
Visibility 10 miles    
Events      
T = Trace of Precipitation, MM = Missing Value Source: NWS Daily Summary

Daily Weather History Graph

Daily Weather History Graph

Search for Another Location

Airport or City:

Trip Planner

Search our weather history database for the weather conditions in past years. The results will help you decide how hot, cold, wet, or windy it might be!

Date:

Astronomy

Aug. 17, 2013 Rise Set
Actual Time 6:08 AM EDT 7:50 PM EDT
Civil Twilight 5:39 AM EDT 8:19 PM EDT
Nautical Twilight 5:03 AM EDT 8:55 PM EDT
Astronomical Twilight 4:25 AM EDT 9:32 PM EDT
Moon 5:04 PM EDT (8/17) 2:07 AM EDT (8/17)
Length of Visible Light 14h 40m
Length of Day
13h 42m
Waxing Gibbous, 84% of the Moon is Illuminated
Aug 17
Waxing Gibbous
Aug 20
Full
Aug 28
Last Quarter
Sep 5
New
Sep 12
First Quarter

Hourly Weather History & Observations

Time (EDT) Temp. Heat Index Dew Point Humidity Pressure Visibility Wind Dir Wind Speed Gust Speed Precip Events Conditions
12:51 AM 69.1 °F - 52.0 °F 54% 30.22 in 10.0 mi Calm Calm - N/A   Clear
1:51 AM 68.0 °F - 53.1 °F 59% 30.22 in 10.0 mi Calm Calm - N/A   Clear
2:51 AM 66.9 °F - 54.0 °F 63% 30.22 in 10.0 mi Calm Calm - N/A   Clear
3:51 AM 66.9 °F - 53.1 °F 61% 30.23 in 10.0 mi Calm Calm - N/A   Clear
4:51 AM 64.9 °F - 53.1 °F 65% 30.22 in 10.0 mi Variable 3.5 mph - N/A   Clear
5:51 AM 64.9 °F - 54.0 °F 68% 30.24 in 10.0 mi WNW 4.6 mph - N/A   Clear
6:51 AM 66.0 °F - 54.0 °F 65% 30.25 in 10.0 mi Calm Calm - N/A   Clear
7:51 AM 66.9 °F - 55.0 °F 66% 30.26 in 10.0 mi Calm Calm - N/A   Clear
8:51 AM 70.0 °F - 55.9 °F 61% 30.28 in 10.0 mi Calm Calm - N/A   Clear
9:51 AM 73.0 °F - 57.9 °F 59% 30.28 in 10.0 mi East 3.5 mph - N/A   Clear
10:51 AM 75.9 °F - 57.0 °F 52% 30.27 in 10.0 mi ENE 4.6 mph - N/A   Clear
11:51 AM 80.1 °F 80.0 °F 54.0 °F 40% 30.26 in 10.0 mi East 4.6 mph - N/A   Scattered Clouds
12:51 PM 82.0 °F 81.4 °F 55.0 °F 39% 30.26 in 10.0 mi Variable 3.5 mph - N/A   Partly Cloudy
1:51 PM 82.9 °F - 51.1 °F 33% 30.25 in 10.0 mi Variable 4.6 mph - N/A   Clear
2:51 PM 81.0 °F - 51.1 °F 35% 30.24 in 10.0 mi Calm Calm - N/A   Scattered Clouds
3:51 PM 78.1 °F - 55.0 °F 45% 30.24 in 10.0 mi Variable 3.5 mph - N/A   Scattered Clouds
4:51 PM 78.1 °F - 55.0 °F 45% 30.24 in 10.0 mi Variable 4.6 mph - N/A   Scattered Clouds
5:51 PM 77.0 °F - 54.0 °F 45% 30.24 in 10.0 mi Calm Calm - N/A   Partly Cloudy
6:51 PM 75.0 °F - 53.1 °F 46% 30.24 in 10.0 mi Calm Calm - N/A   Clear
7:51 PM 73.0 °F - 52.0 °F 48% 30.25 in 10.0 mi Calm Calm - N/A   Clear
8:51 PM 72.0 °F - 51.1 °F 48% 30.27 in 10.0 mi Variable 3.5 mph - N/A   Clear
9:51 PM 72.0 °F - 50.0 °F 46% 30.27 in 10.0 mi Calm Calm - N/A   Clear
10:51 PM 71.1 °F - 51.1 °F 49% 30.27 in 10.0 mi Variable 3.5 mph - N/A   Clear
11:51 PM 71.1 °F - 50.0 °F 47% 30.27 in 10.0 mi Calm Calm - N/A   Clear